• In Deutschland
  • Länderverzeichnis
  • Für 7 Tage
  • Wassertemperatur
  • Satellitenkarten
  • Wetterkarte
  • Widgets
  • user-avatar
    Anmelden

    Stündliche Wetter Ischgl

    Heute, 26 Juli, Mittwoch

    Zeit Temperatur Niederschläge Wind Luftdruck Luftfeuchtigkeit
    00:00 +1°C° 0,3 mm 2 m/S 570 mmHg 92%
    01:00 +1°C° 0,3 mm 2 m/S 570 mmHg 93%
    02:00 +1°C° 0,2 mm 2 m/S 570 mmHg 93%
    03:00 +1°C° 0,2 mm 2 m/S 569 mmHg 93%
    04:00 +1°C° 0,2 mm 2 m/S 569 mmHg 92%
    05:00 +1°C° 0,8 mm 2 m/S 569 mmHg 91%
    06:00 +1°C° 0,8 mm 2 m/S 570 mmHg 89%
    07:00 +2°C° 0,8 mm 2 m/S 570 mmHg 87%
    08:00 +2°C° 0,7 mm 2 m/S 570 mmHg 85%
    09:00 +3°C° 0,7 mm 2 m/S 571 mmHg 83%
    10:00 +4°C° 0,7 mm 2 m/S 571 mmHg 81%
    11:00 +4°C° 0,5 mm 2 m/S 572 mmHg 80%
    12:00 +5°C° 0,5 mm 2 m/S 572 mmHg 79%
    13:00 +5°C° 0,5 mm 2 m/S 572 mmHg 78%
    14:00 +5°C° 0,6 mm 2 m/S 572 mmHg 79%
    15:00 +5°C° 0,6 mm 2 m/S 572 mmHg 80%
    16:00 +4°C° 0,6 mm 2 m/S 572 mmHg 81%
    17:00 +4°C° 0,7 mm 2 m/S 572 mmHg 83%
    18:00 +4°C° 0,7 mm 2 m/S 572 mmHg 85%
    19:00 +3°C° 0,7 mm 2 m/S 572 mmHg 87%
    20:00 +3°C° 0,3 mm 2 m/S 572 mmHg 89%
    21:00 +2°C° 0,3 mm 2 m/S 572 mmHg 91%
    22:00 +2°C° 0,3 mm 2 m/S 572 mmHg 92%
    23:00 +1°C° 0 mm 2 m/S 572 mmHg 93%

    Morgen, 27 Juli, Donnerstag

    Zeit Temperatur Niederschläge Wind Luftdruck Luftfeuchtigkeit
    00:00 +1°C° 0 mm 2 m/S 572 mmHg 93%
    01:00 -1°C° 0 mm 2 m/S 572 mmHg 93%
    02:00 -1°C° 0 mm 2 m/S 572 mmHg 91%
    03:00 -1°C° 0 mm 2 m/S 571 mmHg 88%
    04:00 -1°C° 0 mm 2 m/S 571 mmHg 85%
    05:00 +1°C° 0 mm 2 m/S 572 mmHg 80%
    06:00 +2°C° 0 mm 2 m/S 573 mmHg 74%
    07:00 +4°C° 0 mm 2 m/S 573 mmHg 69%
    08:00 +6°C° 0,1 mm 1 m/S 574 mmHg 68%
    09:00 +7°C° 0,1 mm 1 m/S 575 mmHg 66%
    10:00 +8°C° 0,1 mm 1 m/S 575 mmHg 65%
    11:00 +9°C° 0,1 mm 1 m/S 576 mmHg 65%
    12:00 +10°C° 0,1 mm 1 m/S 576 mmHg 64%
    13:00 +12°C° 0,1 mm 1 m/S 576 mmHg 64%
    14:00 +12°C° 0 mm 2 m/S 577 mmHg 64%
    15:00 +12°C° 0 mm 2 m/S 577 mmHg 64%
    16:00 +13°C° 0 mm 2 m/S 577 mmHg 64%
    17:00 +12°C° 0,1 mm 2 m/S 576 mmHg 71%
    18:00 +11°C° 0,1 mm 1 m/S 576 mmHg 78%
    19:00 +10°C° 0,1 mm 1 m/S 576 mmHg 85%
    20:00 +9°C° 0,1 mm 1 m/S 575 mmHg 88%
    21:00 +7°C° 0,1 mm 1 m/S 575 mmHg 92%
    22:00 +6°C° 0,1 mm 1 m/S 575 mmHg 95%
    23:00 +6°C° 0,1 mm 1 m/S 575 mmHg 96%

    übermorgen, 28 Juli, Freitag

    Zeit Temperatur Niederschläge Wind Luftdruck Luftfeuchtigkeit
    00:00 +6°C° 0,1 mm 1 m/S 574 mmHg 96%
    01:00 +5°C° 0,1 mm 1 m/S 574 mmHg 96%
    02:00 +5°C° 0 mm 1 m/S 574 mmHg 96%
    03:00 +5°C° 0 mm 1 m/S 574 mmHg 96%
    04:00 +5°C° 0 mm 1 m/S 574 mmHg 95%
    05:00 +6°C° 0 mm 1 m/S 575 mmHg 93%
    06:00 +7°C° 0 mm 1 m/S 576 mmHg 90%
    07:00 +8°C° 0 mm 1 m/S 576 mmHg 87%
    08:00 +9°C° 0,1 mm 1 m/S 577 mmHg 83%
    09:00 +10°C° 0,1 mm 1 m/S 577 mmHg 78%
    10:00 +11°C° 0,1 mm 1 m/S 578 mmHg 73%
    11:00 +12°C° 0,1 mm 1 m/S 578 mmHg 69%
    12:00 +13°C° 0,1 mm 2 m/S 579 mmHg 65%
    13:00 +15°C° 0,1 mm 2 m/S 580 mmHg 61%
    14:00 +15°C° 0,1 mm 2 m/S 580 mmHg 63%
    15:00 +14°C° 0,1 mm 2 m/S 579 mmHg 65%
    16:00 +14°C° 0,1 mm 2 m/S 579 mmHg 66%
    17:00 +13°C° 0,1 mm 2 m/S 579 mmHg 73%
    18:00 +12°C° 0,1 mm 2 m/S 579 mmHg 79%
    19:00 +11°C° 0,1 mm 1 m/S 579 mmHg 85%
    20:00 +10°C° 0 mm 1 m/S 578 mmHg 89%
    21:00 +9°C° 0 mm 1 m/S 578 mmHg 92%
    22:00 +7°C° 0 mm 1 m/S 578 mmHg 96%
    23:00 +7°C° 0 mm 1 m/S 578 mmHg 95%

    29 Juli, Samstag

    Zeit Temperatur Niederschläge Wind Luftdruck Luftfeuchtigkeit
    00:00 +7°C° 0 mm 1 m/S 578 mmHg 94%
    01:00 +7°C° 0 mm 1 m/S 578 mmHg 93%
    02:00 +7°C° 0 mm 1 m/S 578 mmHg 93%
    03:00 +7°C° 0 mm 1 m/S 578 mmHg 93%
    04:00 +7°C° 0 mm 1 m/S 577 mmHg 92%
    05:00 +8°C° 0,1 mm 1 m/S 578 mmHg 89%
    06:00 +10°C° 0,1 mm 1 m/S 579 mmHg 86%
    07:00 +11°C° 0,1 mm 1 m/S 580 mmHg 84%
    08:00 +12°C° 0,3 mm 1 m/S 580 mmHg 80%
    09:00 +12°C° 0,3 mm 1 m/S 581 mmHg 76%
    10:00 +13°C° 0,3 mm 1 m/S 581 mmHg 73%
    11:00 +13°C° 0,7 mm 1 m/S 581 mmHg 75%
    12:00 +13°C° 0,7 mm 1 m/S 581 mmHg 77%
    13:00 +13°C° 0,7 mm 1 m/S 581 mmHg 79%
    14:00 +13°C° 1,7 mm 2 m/S 581 mmHg 83%
    15:00 +12°C° 1,7 mm 2 m/S 580 mmHg 87%
    16:00 +12°C° 1,7 mm 2 m/S 580 mmHg 90%
    17:00 +11°C° 1,6 mm 1 m/S 580 mmHg 91%
    18:00 +11°C° 1,6 mm 1 m/S 580 mmHg 92%
    19:00 +10°C° 1,6 mm 1 m/S 580 mmHg 93%
    20:00 +10°C° 1,1 mm 1 m/S 579 mmHg 93%
    21:00 +9°C° 1,1 mm 1 m/S 579 mmHg 93%
    22:00 +9°C° 1,1 mm 1 m/S 579 mmHg 94%
    23:00 +9°C° 0,9 mm 1 m/S 579 mmHg 93%

    30 Juli, Sonntag

    Zeit Temperatur Niederschläge Wind Luftdruck Luftfeuchtigkeit
    00:00 +8°C° 0,9 mm 1 m/S 579 mmHg 92%
    01:00 +8°C° 0,9 mm 1 m/S 579 mmHg 91%
    02:00 +8°C° 0,4 mm 1 m/S 578 mmHg 91%
    03:00 +8°C° 0,4 mm 1 m/S 578 mmHg 90%
    04:00 +8°C° 0,4 mm 1 m/S 578 mmHg 90%
    05:00 +9°C° 0,1 mm 1 m/S 578 mmHg 87%
    06:00 +10°C° 0,1 mm 1 m/S 579 mmHg 84%
    07:00 +11°C° 0,1 mm 1 m/S 579 mmHg 82%
    08:00 +13°C° 0,2 mm 1 m/S 580 mmHg 73%
    09:00 +15°C° 0,2 mm 1 m/S 581 mmHg 63%
    10:00 +18°C° 0,2 mm 1 m/S 582 mmHg 54%
    11:00 +19°C° 0,5 mm 1 m/S 582 mmHg 53%
    12:00 +19°C° 0,5 mm 1 m/S 582 mmHg 51%
    13:00 +19°C° 0,5 mm 2 m/S 582 mmHg 49%
    14:00 +19°C° 0,7 mm 1 m/S 582 mmHg 51%
    15:00 +19°C° 0,7 mm 1 m/S 582 mmHg 53%
    16:00 +19°C° 0,7 mm 1 m/S 581 mmHg 56%
    17:00 +16°C° 0,6 mm 1 m/S 581 mmHg 64%
    18:00 +15°C° 0,6 mm 1 m/S 580 mmHg 72%
    19:00 +14°C° 0,6 mm 1 m/S 580 mmHg 81%
    20:00 +12°C° 0,1 mm 1 m/S 580 mmHg 84%
    21:00 +11°C° 0,1 mm 1 m/S 579 mmHg 87%
    22:00 +9°C° 0,1 mm 1 m/S 579 mmHg 90%
    23:00 +9°C° 0 mm 1 m/S 579 mmHg 90%

    31 Juli, Montag

    Zeit Temperatur Niederschläge Wind Luftdruck Luftfeuchtigkeit
    00:00 +9°C° 0 mm 1 m/S 579 mmHg 90%
    01:00 +8°C° 0 mm 2 m/S 579 mmHg 90%
    02:00 +8°C° 0 mm 2 m/S 579 mmHg 90%
    03:00 +8°C° 0 mm 2 m/S 578 mmHg 90%
    04:00 +7°C° 0 mm 2 m/S 578 mmHg 90%
    05:00 +9°C° 0 mm 2 m/S 579 mmHg 87%
    06:00 +10°C° 0 mm 2 m/S 579 mmHg 83%
    07:00 +12°C° 0 mm 2 m/S 580 mmHg 79%
    08:00 +14°C° 0 mm 2 m/S 581 mmHg 70%
    09:00 +16°C° 0 mm 2 m/S 582 mmHg 61%
    10:00 +18°C° 0 mm 2 m/S 583 mmHg 51%
    11:00 +19°C° 0 mm 2 m/S 583 mmHg 49%
    12:00 +20°C° 0 mm 2 m/S 583 mmHg 47%
    13:00 +20°C° 0 mm 3 m/S 583 mmHg 45%
    14:00 +20°C° 0,1 mm 3 m/S 583 mmHg 47%
    15:00 +20°C° 0,1 mm 2 m/S 582 mmHg 49%
    16:00 +19°C° 0,1 mm 2 m/S 582 mmHg 50%
    17:00 +18°C° 0,1 mm 2 m/S 581 mmHg 58%
    18:00 +17°C° 0,1 mm 2 m/S 581 mmHg 65%
    19:00 +15°C° 0,1 mm 2 m/S 580 mmHg 73%
    20:00 +14°C° 0 mm 2 m/S 580 mmHg 77%
    21:00 +13°C° 0 mm 2 m/S 579 mmHg 82%
    22:00 +10°C° 0 mm 3 m/S 579 mmHg 86%
    23:00 +10°C° 0 mm 3 m/S 579 mmHg 84%
    Mehr zeigen